Fort Myers, FL

1:00 PM EDT on June 23, 2017 (GMT -0400)
Page

Weather History for KFMY - June, 2014

Change the Weather History Date:

Monday, June 16, 2014

  Actual Average Record
Temperature  
Mean Temperature 82 °F 83 °F  
Max Temperature 93 °F 92 °F 103 °F (1981)
Min Temperature 70 °F 74 °F 65 °F (1945)
Degree Days  
Heating Degree Days 0 0  
Month to date heating degree days 0 0  
Since 1 June heating degree days 0 0  
Since 1 July heating degree days 178 287  
Cooling Degree Days 17 18  
Month to date cooling degree days 271 276  
Year to date cooling degree days 1462 1342  
Since 1 June cooling degree days 271 276  
Growing Degree Days 30 (Base 50)    
Moisture  
Dew Point 69 °F    
Average Humidity 77    
Maximum Humidity 97    
Minimum Humidity 44    
Precipitation  
Precipitation 0.00 in 0.37 in 2.53 in (1986)
Month to date precipitation 0.56 4.85  
Year to date precipitation 11.90 16.65  
Sea Level Pressure  
Sea Level Pressure 30.11 in    
Wind  
Wind Speed 6 mph (ENE)    
Max Wind Speed 31 mph    
Max Gust Speed 37 mph    
Visibility 9 miles    
Events Thunderstorm    
T = Trace of Precipitation, MM = Missing Value Source: NWS Daily Summary

Daily Weather History Graph

Daily Weather History Graph

Search for Another Location

Airport or City:

Trip Planner

Search our weather history database for the weather conditions in past years. The results will help you decide how hot, cold, wet, or windy it might be!

Date:

Astronomy

Jun. 16, 2014 Rise Set
Actual Time 6:34 AM EDT 8:22 PM EDT
Civil Twilight 6:07 AM EDT 8:48 PM EDT
Nautical Twilight 5:36 AM EDT 9:20 PM EDT
Astronomical Twilight 5:02 AM EDT 9:53 PM EDT
Moon 11:34 PM EDT (6/16) 10:18 AM EDT (6/16)
Length of Visible Light 14h 40m
Length of Day
13h 48m
Waning Gibbous, 83% of the Moon is Illuminated
Jun 16
Waning Gibbous
Jun 19
Last Quarter
Jun 27
New
Jul 5
First Quarter
Jul 12
Full

Hourly Weather History & Observations

Time (EDT) Temp. Heat Index Dew Point Humidity Pressure Visibility Wind Dir Wind Speed Gust Speed Precip Events Conditions
12:53 AM 71.1 °F - 69.1 °F 93% 30.12 in 10.0 mi Calm Calm - N/A   Clear
1:53 AM 71.1 °F - 69.1 °F 93% 30.11 in 10.0 mi Calm Calm - N/A   Clear
2:53 AM 71.1 °F - 68.0 °F 90% 30.11 in 10.0 mi ENE 5.8 mph - N/A   Clear
3:53 AM 71.1 °F - 68.0 °F 90% 30.10 in 10.0 mi ENE 4.6 mph - N/A   Clear
4:53 AM 70.0 °F - 68.0 °F 93% 30.09 in 10.0 mi ENE 5.8 mph - N/A   Clear
5:53 AM 70.0 °F - 68.0 °F 93% 30.10 in 10.0 mi ENE 4.6 mph - N/A   Clear
6:53 AM 71.1 °F - 68.0 °F 90% 30.11 in 10.0 mi NE 4.6 mph - N/A   Clear
7:53 AM 73.0 °F - 70.0 °F 90% 30.13 in 10.0 mi East 4.6 mph - N/A   Clear
8:53 AM 75.0 °F - 71.1 °F 87% 30.14 in 10.0 mi ENE 4.6 mph - N/A   Clear
9:53 AM 78.1 °F - 73.0 °F 84% 30.17 in 10.0 mi East 4.6 mph - N/A   Clear
10:53 AM 82.9 °F 90.2 °F 75.0 °F 77% 30.17 in 10.0 mi East 10.4 mph - N/A   Partly Cloudy
11:53 AM 86.0 °F 93.0 °F 73.0 °F 65% 30.15 in 10.0 mi ENE 9.2 mph - N/A   Partly Cloudy
12:53 PM 88.0 °F 92.9 °F 70.0 °F 55% 30.14 in 10.0 mi ENE 9.2 mph - N/A   Mostly Cloudy
1:53 PM 87.1 °F 91.3 °F 69.1 °F 55% 30.13 in 10.0 mi ENE 8.1 mph 19.6 mph N/A   Partly Cloudy
2:53 PM 90.0 °F 94.5 °F 69.1 °F 50% 30.11 in 10.0 mi East 12.7 mph - N/A   Scattered Clouds
3:53 PM 91.0 °F 93.8 °F 66.0 °F 44% 30.09 in 10.0 mi East 8.1 mph 16.1 mph N/A   Partly Cloudy
4:53 PM 91.9 °F 95.4 °F 66.9 °F 44% 30.08 in 10.0 mi East 8.1 mph - N/A   Mostly Cloudy
5:49 PM 89.6 °F 93.4 °F 68.0 °F 49% 30.05 in 10.0 mi ESE 8.1 mph - N/A Thunderstorm Scattered Clouds
5:53 PM 89.1 °F 92.1 °F 66.9 °F 48% 30.06 in 10.0 mi East 8.1 mph - N/A Thunderstorm Scattered Clouds
6:16 PM 78.1 °F - 66.0 °F 66% 30.06 in 10.0 mi ENE 17.3 mph 33.4 mph N/A Thunderstorm Thunderstorm
6:30 PM 75.0 °F - 66.9 °F 76% 30.08 in 1.8 mi NE 28.8 mph 36.8 mph N/A Thunderstorm Unknown
6:42 PM 73.9 °F - 69.1 °F 85% 30.08 in 2.0 mi NE 6.9 mph - N/A Thunderstorm Haze
6:53 PM 73.9 °F - 70.0 °F 87% 30.09 in 5.0 mi East 11.5 mph - N/A Thunderstorm Overcast
7:00 PM 73.9 °F - 70.0 °F 87% 30.09 in 5.0 mi East 9.2 mph - N/A   Mostly Cloudy
7:09 PM 75.0 °F - 71.1 °F 87% 30.08 in 5.0 mi East 8.1 mph - N/A   Scattered Clouds
7:53 PM 75.9 °F - 71.1 °F 85% 30.08 in 10.0 mi East 5.8 mph - N/A   Clear
8:53 PM 73.9 °F - 70.0 °F 87% 30.10 in 10.0 mi SSE 3.5 mph - N/A   Clear
9:53 PM 73.9 °F - 69.1 °F 85% 30.12 in 10.0 mi Calm Calm - N/A   Clear
10:53 PM 75.0 °F - 69.1 °F 82% 30.12 in 10.0 mi NE 4.6 mph - N/A   Clear
11:53 PM 75.0 °F - 69.1 °F 82% 30.13 in 10.0 mi NNW 3.5 mph - N/A   Clear